AV194 Weather Reports


time (UTC)temp
F
wind
direction
speed
knots
gust
knots
rain 1hr
in
rain 24hr
in
rain mn
in
humidity
%
barometer
mb
20260503233554 48 27 0.0 1.7 0.00 0.02 0.00 54 1007.3
20260503233156 48 63 0.0 0.9 0.00 0.02 0.00 55 1007.3
20260503232552 48 52 0.0 0.9 0.00 0.02 0.00 53 1007.3
20260503232052 49 63 0.0 4.3 0.00 0.02 0.00 53 1007.3
20260503231555 49 355 0.9 4.3 0.00 0.02 0.00 49 1007.3
20260503231052 50 342 0.0 3.5 0.00 0.02 0.00 48 1007.2
20260503230552 50 302 0.0 1.7 0.00 0.02 0.00 48 1007.2
20260503230059 50 313 0.9 4.3 0.00 0.02 0.00 46 1007.1
20260503225551 50 269 1.7 4.3 0.00 0.02 0.00 45 1007.0
20260503225051 50 338 0.9 5.2 0.00 0.02 0.00 48 1007.0
20260503224551 51 346 2.6 5.2 0.00 0.02 0.00 44 1007.0
20260503224051 51 35 2.6 7.8 0.00 0.02 0.00 44 1007.0
20260503223551 51 347 3.5 7.8 0.00 0.02 0.00 43 1006.9
20260503223057 51 327 2.6 4.3 0.00 0.02 0.00 45 1006.7
20260503222550 51 323 0.9 4.3 0.00 0.02 0.00 44 1006.7
20260503222050 51 334 0.9 8.7 0.00 0.02 0.00 43 1006.7
20260503221553 51 27 2.6 8.7 0.00 0.02 0.00 41 1006.6
20260503221052 52 296 3.5 8.7 0.00 0.02 0.00 42 1006.6
20260503220551 52 252 3.5 8.7 0.00 0.02 0.00 44 1006.5
20260503220049 51 336 3.5 6.1 0.00 0.02 0.00 43 1006.5
20260503215549 51 350 3.5 6.1 0.00 0.02 0.00 42 1006.5
20260503215049 52 348 1.7 8.7 0.00 0.02 0.00 43 1006.4
20260503214548 52 329 4.3 8.7 0.00 0.02 0.00 41 1006.4
20260503214049 51 223 3.5 6.1 0.00 0.02 0.00 42 1006.3
20260503213548 51 306 0.9 6.1 0.00 0.02 0.00 43 1006.3
20260503213100 51 33 2.6 8.7 0.00 0.02 0.00 42 1006.3
20260503212548 52 324 3.5 8.7 0.00 0.02 0.00 42 1006.2
20260503212048 52 351 1.7 5.2 0.00 0.02 0.00 43 1006.2
20260503211547 52 340 1.7 7.8 0.00 0.02 0.00 44 1006.1
20260503211047 52 86 1.7 10.4 0.00 0.02 0.00 43 1006.0
20260503210550 52 312 1.7 10.4 0.00 0.02 0.00 43 1005.9
20260503210055 52 312 2.6 7.8 0.00 0.07 0.00 42 1005.8
20260503205548 52 246 1.7 7.8 0.00 0.07 0.00 46 1005.9
20260503205046 52 337 2.6 7.8 0.00 0.07 0.00 43 1005.9
20260503204552 52 321 3.5 9.6 0.00 0.07 0.00 42 1005.8
20260503204046 52 33 3.5 9.6 0.00 0.07 0.00 43 1005.8
20260503203546 52 333 1.7 7.0 0.00 0.07 0.00 45 1005.7
20260503203045 51 286 3.5 9.6 0.00 0.07 0.00 42 1005.8
20260503202545 52 292 4.3 9.6 0.00 0.07 0.00 43 1005.7
20260503202045 52 30 2.6 8.7 0.00 0.07 0.00 42 1005.6
20260503201545 52 329 3.5 8.7 0.00 0.07 0.00 42 1005.5
20260503201043 52 292 3.5 9.6 0.00 0.07 0.00 42 1005.4
20260503200543 52 346 2.6 9.6 0.00 0.07 0.00 41 1005.5
20260503200049 53 331 3.5 7.0 0.00 0.18 0.00 40 1005.5
20260503195544 53 221 2.6 9.6 0.00 0.18 0.00 42 1005.5
20260503195043 54 23 2.6 9.6 0.00 0.18 0.00 46 1005.5
20260503194546 53 355 3.5 9.6 0.00 0.18 0.00 40 1005.5
20260503194042 52 244 3.5 7.8 0.00 0.18 0.00 44 1005.6
20260503193542 52 202 1.7 7.0 0.00 0.18 0.00 44 1005.4
20260503193050 52 313 2.6 8.7 0.00 0.18 0.00 44 1005.6
20260503192541 52 343 3.5 8.7 0.00 0.18 0.00 44 1005.6
20260503192041 52 309 1.7 7.8 0.00 0.18 0.00 46 1005.5
20260503191542 52 351 2.6 7.0 0.00 0.18 0.00 48 1005.4
20260503191041 52 350 3.5 7.0 0.00 0.18 0.00 46 1005.4
20260503190544 52 329 1.7 9.6 0.00 0.18 0.00 48 1005.4
20260503190040 53 19 2.6 9.6 0.00 0.22 0.00 47 1005.5
20260503185542 53 45 3.5 7.8 0.00 0.22 0.00 49 1005.5
20260503185038 52 267 0.9 8.7 0.00 0.22 0.00 44 1005.6
20260503184551 53 283 3.5 8.7 0.00 0.22 0.00 45 1005.6
20260503184040 54 318 2.6 10.4 0.00 0.22 0.00 45 1005.6
20260503183536 53 5 3.5 10.4 0.00 0.22 0.00 50 1005.5
20260503183052 53 5 3.5 12.2 0.00 0.22 0.00 49 1005.6
20260503182536 53 59 4.3 8.7 0.00 0.22 0.00 48 1005.5
20260503182034 53 94 4.3 7.0 0.00 0.22 0.00 48 1005.4
20260503181535 53 219 1.7 7.0 0.00 0.22 0.00 48 1005.5
20260503181034 53 244 1.7 7.0 0.00 0.22 0.00 51 1005.5
20260503180533 52 206 3.5 8.7 0.00 0.22 0.00 51 1005.5
20260503180040 52 324 4.3 8.7 0.00 0.22 0.00 49 1005.7
20260503175530 52 313 1.7 6.1 0.00 0.22 0.00 51 1005.7
20260503175030 51 333 2.6 13.0 0.00 0.22 0.00 54 1005.7
20260503174528 51 333 3.5 13.0 0.00 0.22 0.00 51 1005.8
20260503174028 51 38 2.6 8.7 0.00 0.22 0.00 51 1005.7
20260503173527 51 323 2.6 9.6 0.00 0.22 0.00 51 1005.7
20260503173037 51 20 2.6 9.6 0.00 0.22 0.00 53 1005.8
20260503172526 51 65 3.5 10.4 0.00 0.22 0.00 54 1005.8
20260503172024 50 275 2.6 10.4 0.00 0.22 0.00 56 1005.7
20260503171524 50 217 2.6 7.0 0.00 0.22 0.00 55 1005.7
20260503171025 50 29 2.6 7.0 0.00 0.22 0.00 56 1005.7
20260503170524 50 291 1.7 8.7 0.00 0.22 0.00 55 1005.7
20260503151011 47 337 4.3 8.7 0.00 0.22 0.00 70 1006.0
20260503150507 47 299 1.7 8.7 0.00 0.22 0.00 72 1006.0
20260503131051 43 292 5.2 8.7 0.00 0.22 0.00 87 1006.4
20260503130548 43 76 0.9 6.1 0.00 0.22 0.00 88 1006.5
20260503110537 41 336 0.0 5.2 0.00 0.33 0.00 88 1006.7
20260503081516 41 328 0.0 3.5 0.00 0.35 0.00 93 1007.7
20260503081015 41 325 0.9 3.5 0.00 0.35 0.00 94 1007.6
20260503080514 41 329 0.0 3.5 0.00 0.35 0.00 94 1007.6
20260503072508 41 38 0.9 3.5 0.00 0.35 0.00 95 1008.0
20260503072007 41 92 0.0 0.9 0.00 0.35 0.00 95 1008.1
20260503071510 41 92 0.0 0.9 0.00 0.35 0.00 95 1008.1
20260503071006 42 85 0.0 0.0 0.00 0.35 0.00 95 1008.1
20260503070507 42 85 0.0 0.0 0.00 0.35 0.00 95 1008.1
20260503055054 42 292 0.9 1.7 0.00 0.35 0.00 95 1008.9
20260503054554 43 13 0.0 0.9 0.00 0.35 0.00 95 1008.9
20260503054054 42 13 0.0 0.9 0.00 0.35 0.00 95 1008.9
20260503053553 42 13 0.0 0.9 0.00 0.35 0.00 95 1009.1
20260503053053 42 13 0.0 0.9 0.00 0.35 0.00 95 1009.1
20260503052553 42 13 0.0 0.0 0.00 0.35 0.00 95 1009.1
20260503052051 43 13 0.0 0.0 0.00 0.35 0.00 95 1009.1
20260503051553 43 13 0.0 0.0 0.00 0.35 0.00 95 1009.4
20260503051050 43 13 0.0 0.0 0.00 0.35 0.00 95 1009.3
20260503050549 43 13 0.0 0.0 0.00 0.35 0.00 95 1009.5
20260503050048 43 13 0.0 0.0 0.00 0.35 0.00 95 1009.6
20260503045550 43 13 0.0 0.0 0.01 0.35 0.00 95 1009.5
20260503045050 43 13 0.0 0.9 0.01 0.35 0.00 95 1009.6
20260503044546 43 13 0.0 3.5 0.01 0.35 0.00 95 1009.7
20260503044046 43 19 0.9 3.5 0.01 0.35 0.00 95 1009.6
20260503043545 43 201 0.0 1.7 0.01 0.35 0.00 95 1009.6
20260503043047 43 201 0.0 1.7 0.01 0.35 0.00 95 1009.7
20260503042543 44 283 0.0 0.0 0.01 0.35 0.00 95 1010.0
20260503042043 44 283 0.0 0.9 0.01 0.35 0.00 95 1010.0
20260503041544 44 296 0.0 0.9 0.01 0.35 0.00 95 1010.0
20260503041042 44 236 0.0 5.2 0.01 0.35 0.00 96 1010.0
20260503040541 44 336 1.7 6.1 0.01 0.35 0.00 95 1010.0
20260503040047 44 99 0.9 4.3 0.00 0.34 0.34 95 1010.0
20260503035539 44 331 0.0 3.5 0.00 0.34 0.34 96 1010.1
20260503035037 45 331 0.9 3.5 0.00 0.34 0.34 96 1010.0
20260503034549 45 323 0.0 1.7 0.00 0.34 0.34 96 1010.0
20260503034037 45 309 0.0 3.5 0.00 0.34 0.34 96 1010.1
20260503033536 45 344 0.9 3.5 0.00 0.34 0.34 96 1010.1
20260503033042 45 244 0.0 1.7 0.00 0.34 0.34 96 1010.1
20260503032535 45 244 0.0 1.7 0.00 0.34 0.34 96 1010.0
20260503032035 45 254 0.0 1.7 0.00 0.34 0.34 96 1009.9
20260503031540 45 254 0.0 1.7 0.00 0.34 0.34 96 1009.7
20260503031134 45 325 0.0 0.9 0.00 0.34 0.34 96 1009.7
20260503030534 46 325 0.0 0.9 0.00 0.34 0.34 96 1009.9
20260503030046 46 325 0.0 0.9 0.00 0.34 0.34 96 1009.9
20260503025534 46 325 0.0 0.9 0.00 0.34 0.34 96 1009.9
20260503025033 46 325 0.0 1.7 0.00 0.34 0.34 96 1009.9
20260503024533 46 325 0.0 1.7 0.00 0.34 0.34 96 1010.0
20260503024033 46 325 0.0 1.7 0.00 0.34 0.34 96 1010.1
20260503023532 46 325 0.0 1.7 0.00 0.34 0.34 96 1010.1
20260503023034 46 275 0.0 0.9 0.00 0.34 0.34 96 1010.2
20260503022532 46 275 0.0 1.7 0.00 0.34 0.34 95 1010.2
20260503022032 46 273 0.0 1.7 0.00 0.34 0.34 95 1010.2
20260503021540 46 272 0.0 1.7 0.00 0.34 0.34 95 1010.2
20260503021032 46 272 0.9 1.7 0.00 0.34 0.34 95 1010.2
20260503020532 46 264 0.0 0.9 0.00 0.34 0.34 96 1010.1
20260503020032 46 264 0.0 0.9 0.00 0.34 0.34 96 1010.2
20260503015533 46 264 0.0 0.9 0.00 0.34 0.34 95 1010.2
20260503015031 46 264 0.0 0.9 0.00 0.34 0.34 95 1010.2
20260503014530 46 264 0.0 0.9 0.00 0.34 0.34 95 1010.2
20260503014030 46 264 0.0 0.9 0.00 0.34 0.34 95 1010.2
20260503013530 47 264 0.0 0.9 0.00 0.34 0.34 95 1010.2
20260503013031 47 264 0.0 0.0 0.00 0.34 0.34 95 1010.2
20260503012531 47 264 0.0 0.0 0.00 0.34 0.34 95 1010.2
20260503012030 47 264 0.0 1.7 0.00 0.34 0.34 95 1010.2
20260503011534 47 264 0.0 1.7 0.00 0.34 0.34 95 1010.1
20260503011029 47 239 0.0 0.9 0.00 0.34 0.34 95 1010.2
20260503010529 47 239 0.0 1.7 0.00 0.34 0.34 95 1010.2
20260503010029 47 239 0.9 1.7 0.00 0.34 0.34 95 1010.2
20260503005529 47 242 0.9 1.7 0.00 0.34 0.34 95 1010.1
20260503005029 47 269 0.0 1.7 0.00 0.34 0.34 95 1010.0
20260503004528 47 275 0.0 1.7 0.00 0.34 0.34 95 1010.0
20260503004032 47 275 0.0 3.5 0.00 0.34 0.34 95 1009.9
20260503003528 47 271 0.9 2.6 0.00 0.34 0.34 95 1009.8
20260503003028 48 221 0.9 2.6 0.00 0.34 0.34 95 1009.7
20260503002527 48 190 0.0 3.5 0.00 0.34 0.34 95 1009.6
20260503002032 48 176 0.9 2.6 0.00 0.34 0.34 95 1009.5
20260503001528 48 106 0.0 3.5 0.00 0.34 0.34 95 1009.7
20260503001028 48 112 0.9 3.5 0.00 0.34 0.34 95 1009.8
20260503000527 48 98 0.9 3.5 0.00 0.34 0.34 95 1009.9
20260503000033 48 103 0.9 1.7 0.01 0.34 0.34 95 1010.0
20260502235527 48 219 0.0 1.7 0.01 0.34 0.34 95 1010.1
20260502235026 48 219 0.0 1.7 0.01 0.34 0.34 95 1010.0
20260502234526 48 216 0.0 1.7 0.01 0.34 0.34 95 1009.9
20260502234026 48 209 0.9 1.7 0.01 0.34 0.34 95 1009.8